Wind_Speed
13 7 6 15 12 10 11 15 16 9 6 9 11 8 12 21 22 24 25 24 22 20 17 13 9 6 3 1 2 4 4 5 8 10 11 12 12 13 13 12 12 13 12 12
19 18 11 12 12 13 11 12 17 7 14 16 10 8 15 23 25 26 26 24 22 19 16 14 10 7 5 1 3 4 4 4 8 9 10 10 13 13 12 11 11 13 12 13
14 17 12 16 16 19 15 16 12 11 9 3 8 4 12 20 25 26 25 25 23 21 18 15 11 9 5 3 6 6 7 6 8 9 9 13 13 13 12 12 12 13 13 13
13 17 23 12 19 11 18 14 8 6 7 6 6 1 8 16 23 25 25 25 23 21 18 15 12 8 6 5 6 6 5 7 7 9 9 10 13 13 12 12 14 16 16 16
12 14 20 7 6 12 9 10 5 11 2 8 4 4 7 13 20 22 22 23 21 19 17 14 12 9 6 6 6 6 6 7 11 10 9 10 11 12 13 11 11 12 13 15
8 11 15 2 9 50 15 7 4 1 1 0 6 9 3 17 18 20 21 20 20 19 17 14 11 7 6 5 5 5 7 10 10 8 8 9 10 10 11 10 8 10 11 11
10 6 17 12 28 43 13 3 6 7 7 2 2 7 5 10 14 17 18 19 18 17 14 12 9 7 4 4 4 6 7 8 7 6 6 8 8 10 13 10 10 11 12 12
10 12 11 12 9 6 8 7 7 9 6 6 7 5 6 9 13 15 18 18 19 16 14 11 9 5 4 4 5 5 5 6 6 6 6 7 9 10 11 9 9 12 11 13
5 7 5 7 9 8 4 8 6 7 9 10 10 10 10 12 13 14 15 16 16 14 12 9 6 4 5 5 5 5 5 6 7 8 7 8 7 9 9 10 10 11 11 12
7 5 4 2 5 3 3 6 6 8 10 11 12 12 13 13 14 14 14 14 13 12 10 7 6 5 5 5 5 5 5 7 6 7 7 8 7 6 10 8 8 9 10 11
5 3 0 3 1 4 5 7 10 11 12 14 14 13 12 12 12 12 13 12 11 10 8 7 7 6 5 5 5 4 6 6 6 6 8 8 7 7 7 10 10 10 9 10
5 8 3 5 5 4 7 10 12 14 14 13 12 11 10 9 10 11 11 11 10 8 7 7 6 6 6 7 6 6 6 6 6 7 7 8 8 9 13 13 16 15 11 10
6 4 5 3 1 4 8 12 13 14 13 13 11 9 8 9 10 11 11 10 8 8 7 7 7 7 8 7 7 6 6 7 5 7 6 7 8 8 8 13 14 16 16 15
6 5 6 5 4 6 11 14 14 12 11 10 10 8 8 8 10 10 10 8 8 8 8 8 8 8 8 8 8 8 7 9 6 6 7 7 8 8 8 9 10 12 15 17
4 3 6 4 4 8 12 14 15 13 11 9 8 7 7 8 8 9 9 8 8 7 7 8 8 9 9 9 10 9 8 7 9 9 9 9 8 8 8 9 9 9 9 13
3 1 2 3 7 9 12 13 13 11 9 9 8 7 7 8 8 8 8 9 9 7 8 8 9 9 10 9 10 10 11 12 13 11 10 10 10 10 10 10 9 9 8 7
6 4 3 3 6 9 11 12 11 10 9 8 8 8 9 8 8 9 10 9 9 9 8 9 10 10 10 11 11 10 10 11 13 12 12 12 12 12 12 11 11 10 10 11
4 8 7 5 4 4 5 6 7 9 9 9 8 9 10 10 10 10 11 11 12 12 12 12 12 11 12 12 12 11 12 11 12 13 12 13 13 13 13 13 13 12 11 14
11 12 13 13 10 8 5 2 2 7 3 7 9 11 11 11 11 11 11 13 15 17 17 16 18 17 15 15 14 14 14 14 14 14 14 13 14 13 13 14 14 14 13 13
11 11 11 11 10 8 7 8 7 4 7 9 10 11 13 14 16 15 15 21 18 19 17 17 19 21 20 18 21 17 16 17 17 17 16 16 16 16 15 15 16 16 16 16
12 11 11 11 9 10 11 7 7 6 7 9 8 9 11 13 15 16 15 16 17 20 19 19 21 21 21 20 20 20 20 21 22 22 22 19 19 19 20 17 16 16 17 16
10 11 12 11 9 10 9 6 5 4 4 4 4 5 6 9 11 14 17 16 19 22 17 18 19 21 23 24 24 25 29 25 25 25 26 23 21 21 21 21 18 17 17 17
10 9 8 7 6 6 7 6 6 7 8 9 10 11 12 14 14 15 16 13 11 14 14 17 17 21 26 25 26 31 33 31 29 30 29 29 26 23 23 25 24 21 18 17
14 12 9 6 5 5 7 9 10 10 11 12 13 11 13 15 16 14 13 12 12 11 14 16 17 21 22 22 21 24 26 29 32 34 31 34 32 29 26 27 26 25 20 18
5 5 3 6 7 7 9 8 11 10 12 11 12 13 15 16 15 18 16 17 21 19 19 20 21 23 24 21 21 23 25 27 28 29 29 31 29 32 27 31 25 23 22 19
5 6 7 6 5 9 11 12 13 15 14 16 15 15 15 19 19 20 20 21 23 21 25 24 22 24 23 22 25 26 28 29 29 32 33 31 29 37 33 31 28 25 24 22
6 9 8 8 9 10 11 12 13 13 16 15 16 16 19 24 21 20 21 22 22 22 20 20 19 23 25 24 26 28 28 27 28 30 27 27 31 32 29 29 26 26 31 27
Wind_Direction
255 243 263 191 205 219 245 286 299 307 6 325 77 135 169 167 174 175 180 178 176 173 170 170 169 166 158 122 351 347 341 339 323 325 326 328 326 323 325 332 329 330 332 329
256 237 200 254 251 274 253 246 267 299 293 64 87 141 173 177 180 183 184 184 180 181 182 180 181 178 185 261 315 323 322 321 321 323 331 324 314 323 323 322 329 326 327 329
242 238 230 232 248 264 251 257 240 260 81 36 144 177 197 190 183 187 189 188 185 188 187 186 186 188 189 240 296 311 318 319 321 323 328 314 329 332 331 328 330 329 327 323
240 222 221 235 248 246 247 251 225 290 301 97 6 134 217 198 183 190 190 190 189 189 187 185 184 181 208 272 303 308 312 313 315 309 314 332 323 336 339 323 336 336 337 331
233 176 236 170 2 249 238 268 306 293 151 127 133 236 190 202 190 192 192 191 190 188 185 180 179 204 245 284 291 304 305 306 304 312 319 326 328 328 327 332 327 340 330 332
247 295 258 134 22 318 331 253 54 282 308 131 161 242 163 183 184 184 187 187 185 183 182 180 181 207 256 283 283 290 288 293 298 302 308 315 320 318 311 313 344 319 331 333
279 234 234 160 200 215 231 57 88 88 74 94 110 48 90 169 179 181 178 175 177 177 179 180 181 187 213 235 262 264 288 289 297 299 314 313 315 313 308 318 328 326 327 325
254 271 279 91 161 233 105 111 88 77 76 90 103 105 122 154 167 166 163 167 171 172 177 180 183 197 208 235 243 270 275 289 294 285 282 266 281 300 309 317 335 320 321 327
340 348 39 39 60 93 55 115 98 96 89 112 120 122 126 138 150 157 163 166 171 174 178 181 189 201 222 228 246 256 265 272 286 297 301 299 315 313 332 319 320 317 318 317
330 64 82 156 100 83 102 104 111 113 124 131 130 131 131 136 146 155 165 170 174 180 185 194 206 225 213 231 250 261 268 270 279 288 283 301 305 303 296 312 307 308 311 309
273 257 26 113 128 139 131 134 129 133 138 136 136 136 139 145 156 165 170 173 182 188 200 212 218 221 220 235 247 259 266 270 277 298 288 289 298 275 288 302 333 325 311 315
40 25 47 54 133 152 159 155 152 145 140 139 141 142 147 157 170 178 179 183 188 198 212 218 225 228 230 230 238 241 256 274 270 277 281 287 293 300 301 311 322 333 341 340
352 357 10 347 142 190 179 168 159 153 147 141 139 144 151 161 174 181 186 194 204 219 229 227 227 232 240 234 242 246 249 268 272 297 283 284 290 295 295 302 314 326 332 340
294 283 266 251 251 206 180 173 164 158 150 142 140 143 157 166 177 182 193 207 215 222 223 227 232 236 240 242 239 242 249 260 270 274 282 285 289 291 291 292 303 316 319 328
289 267 289 286 208 187 181 176 172 164 157 149 150 156 165 174 184 190 196 202 212 216 226 230 239 243 241 238 240 246 255 258 266 271 274 269 280 282 283 288 294 300 304 314
247 180 113 139 156 178 181 191 182 176 176 171 168 169 178 183 186 188 195 200 204 224 228 232 238 242 238 240 244 251 261 258 250 262 263 273 277 278 281 281 286 287 297 291
207 167 140 135 167 183 197 204 213 196 203 195 193 186 180 184 189 197 209 219 223 228 232 233 237 237 238 236 242 247 253 262 259 268 265 265 269 272 275 276 281 283 285 267
93 78 74 78 123 164 192 205 227 213 219 219 215 206 203 201 211 223 228 230 237 244 244 244 242 238 240 233 238 245 251 255 255 264 267 267 270 269 271 273 274 276 279 278
98 95 90 85 83 84 77 125 276 275 225 219 231 229 231 233 235 235 244 251 253 255 259 252 249 251 239 242 237 243 249 254 258 262 265 266 272 274 274 273 271 272 274 272
86 78 76 73 72 73 71 22 59 347 291 262 250 249 246 243 242 249 261 258 250 263 268 264 253 247 247 240 250 242 250 256 258 262 264 266 269 274 275 272 271 274 272 268
69 65 66 62 41 41 44 3 339 303 281 273 264 263 263 264 268 275 272 266 267 267 263 263 247 249 250 247 242 246 246 251 257 258 260 265 263 266 269 270 272 273 272 269
58 52 46 46 30 22 15 358 345 329 301 297 299 296 292 290 280 285 278 271 284 280 276 269 266 259 252 251 249 251 252 255 253 254 259 257 261 262 266 271 267 272 270 268
33 25 18 14 12 7 349 343 331 313 302 296 291 295 295 295 291 290 289 287 290 299 282 280 273 266 270 269 256 253 251 258 260 256 258 259 254 258 259 263 262 263 265 265
10 355 329 339 347 341 346 328 321 303 290 289 283 284 293 295 293 286 292 296 304 285 291 286 282 279 278 271 265 259 259 258 257 261 257 258 249 250 258 259 254 254 252 259
334 312 337 2 330 346 343 344 326 337 341 317 319 313 326 320 319 307 307 298 291 290 291 291 289 288 285 273 266 264 265 268 264 260 262 253 253 248 245 254 254 250 247 249
23 356 345 347 345 337 326 334 324 335 336 323 327 336 321 320 317 311 304 303 303 299 288 284 286 289 285 271 270 270 273 272 273 268 261 259 253 245 247 250 250 243 242 244
13 1 2 349 348 343 338 340 336 334 330 337 320 311 314 318 314 299 290 290 294 297 300 301 305 303 297 290 279 275 279 276 274 267 261 256 252 243 246 250 264 242 244 253
Height
1447 1461 1451 1453 1458 1461 1466 1463 1471 1464 1468 1464 1467 1478 1487 1497 1505 1513 1519 1524 1529 1532 1535 1538 1540 1541 1541 1541 1540 1539 1538 1538 1536 1532 1530 1529 1527 1525 1524 1523 1522 1521 1520 1519
1459 1449 1456 1462 1458 1458 1458 1463 1463 1463 1467 1461 1472 1478 1485 1493 1502 1510 1516 1522 1527 1531 1534 1536 1538 1539 1540 1540 1539 1538 1537 1536 1533 1531 1529 1528 1525 1523 1522 1521 1521 1519 1518 1516
1469 1455 1457 1474 1462 1457 1453 1452 1455 1470 1465 1469 1475 1480 1483 1489 1498 1506 1514 1519 1523 1528 1532 1534 1536 1538 1538 1537 1537 1536 1534 1533 1532 1530 1529 1525 1522 1521 1520 1518 1517 1515 1513 1512
1463 1457 1479 1450 1440 1443 1445 1447 1449 1455 1457 1467 1474 1478 1483 1486 1494 1502 1509 1515 1520 1525 1529 1531 1534 1535 1535 1535 1534 1534 1533 1532 1530 1527 1526 1523 1521 1520 1519 1518 1515 1513 1512 1510
1462 1468 1459 1445 1451 1453 1453 1456 1450 1454 1457 1465 1479 1481 1483 1486 1491 1500 1506 1513 1518 1523 1527 1528 1530 1530 1532 1532 1532 1531 1531 1530 1527 1525 1523 1522 1522 1521 1519 1517 1516 1514 1513 1509
1446 1465 1478 1470 1473 1467 1450 1467 1453 1460 1462 1466 1477 1479 1471 1485 1491 1497 1504 1511 1516 1521 1524 1526 1527 1528 1529 1530 1530 1530 1529 1527 1525 1523 1523 1522 1521 1521 1519 1515 1514 1513 1511 1509
1459 1468 1467 1457 1466 1467 1476 1474 1466 1466 1469 1473 1478 1486 1488 1489 1494 1498 1503 1509 1515 1519 1523 1525 1526 1528 1528 1529 1529 1528 1526 1524 1522 1522 1522 1522 1521 1520 1516 1513 1512 1512 1511 1509
1455 1466 1474 1451 1457 1463 1469 1471 1472 1472 1475 1478 1485 1488 1491 1493 1497 1500 1505 1510 1515 1519 1522 1524 1525 1525 1526 1527 1526 1525 1524 1523 1522 1521 1520 1521 1518 1517 1514 1512 1512 1512 1510 1508
1463 1468 1456 1456 1456 1463 1466 1470 1472 1475 1478 1483 1487 1491 1494 1497 1500 1504 1508 1512 1515 1518 1521 1522 1522 1523 1524 1524 1523 1523 1522 1523 1522 1519 1517 1516 1515 1515 1514 1514 1513 1512 1509 1507
1459 1457 1456 1464 1463 1467 1470 1471 1475 1477 1481 1485 1490 1494 1497 1500 1503 1506 1509 1512 1515 1517 1519 1520 1520 1520 1521 1521 1520 1520 1521 1521 1520 1518 1518 1516 1515 1516 1514 1512 1512 1511 1509 1506
1457 1457 1462 1464 1467 1471 1474 1475 1478 1482 1485 1488 1492 1495 1498 1502 1504 1507 1509 1512 1515 1517 1518 1519 1519 1519 1519 1519 1518 1518 1520 1520 1519 1518 1516 1516 1515 1514 1513 1510 1508 1506 1505 1502
1462 1467 1469 1470 1472 1475 1477 1479 1482 1484 1488 1490 1493 1496 1499 1502 1505 1507 1509 1512 1514 1515 1516 1517 1516 1516 1517 1517 1517 1518 1519 1519 1518 1516 1516 1515 1513 1512 1509 1508 1506 1504 1502 1500
1469 1473 1473 1475 1475 1476 1479 1482 1484 1487 1490 1492 1495 1497 1499 1502 1504 1506 1509 1511 1512 1514 1514 1514 1514 1515 1515 1514 1515 1515 1516 1516 1515 1513 1514 1513 1512 1511 1509 1504 1503 1501 1499 1497
1475 1475 1475 1475 1475 1477 1479 1483 1487 1489 1492 1493 1495 1498 1500 1502 1503 1505 1508 1509 1511 1512 1512 1512 1512 1513 1513 1512 1512 1512 1512 1512 1512 1513 1512 1511 1510 1508 1507 1506 1504 1501 1497 1495
1475 1475 1474 1475 1476 1478 1481 1484 1486 1490 1492 1494 1497 1499 1500 1501 1503 1505 1507 1508 1509 1510 1510 1510 1511 1510 1510 1510 1509 1509 1510 1510 1511 1510 1509 1508 1507 1506 1505 1504 1502 1501 1499 1495
1476 1476 1476 1477 1478 1481 1483 1486 1488 1490 1493 1495 1497 1499 1500 1501 1503 1504 1505 1506 1507 1507 1507 1507 1508 1508 1507 1506 1506 1507 1507 1506 1507 1507 1506 1505 1505 1504 1502 1501 1500 1498 1497 1496
1475 1476 1477 1478 1480 1482 1485 1487 1488 1490 1493 1495 1497 1498 1499 1501 1502 1503 1504 1505 1504 1504 1504 1504 1504 1504 1503 1503 1504 1504 1504 1504 1503 1504 1503 1502 1501 1500 1499 1498 1497 1495 1494 1491
1478 1477 1479 1480 1482 1484 1485 1487 1489 1490 1493 1495 1497 1498 1499 1499 1500 1501 1502 1502 1502 1501 1501 1501 1501 1500 1499 1500 1500 1501 1501 1501 1500 1499 1499 1498 1497 1496 1495 1494 1493 1492 1491 1487
1483 1484 1484 1484 1485 1486 1488 1489 1490 1491 1490 1494 1496 1496 1497 1497 1498 1498 1499 1499 1499 1498 1498 1497 1497 1496 1495 1494 1495 1496 1497 1496 1496 1495 1494 1493 1493 1492 1491 1490 1489 1488 1487 1486
1487 1487 1487 1487 1488 1489 1489 1491 1487 1492 1494 1494 1494 1494 1494 1494 1493 1494 1493 1492 1492 1493 1493 1492 1490 1489 1489 1490 1490 1491 1492 1491 1490 1489 1489 1488 1486 1485 1485 1484 1484 1483 1482 1481
1489 1489 1489 1488 1490 1488 1486 1490 1488 1488 1491 1492 1492 1491 1490 1490 1489 1489 1488 1488 1487 1486 1485 1485 1485 1485 1484 1484 1484 1484 1484 1484 1484 1483 1482 1482 1481 1481 1479 1478 1477 1477 1477 1476
1492 1492 1491 1490 1491 1490 1490 1491 1490 1490 1491 1491 1490 1490 1489 1488 1487 1485 1484 1483 1482 1481 1480 1479 1479 1478 1478 1479 1479 1478 1476 1476 1474 1474 1474 1474 1474 1474 1473 1473 1472 1471 1471 1471
1494 1494 1493 1492 1492 1491 1491 1491 1490 1490 1489 1489 1489 1488 1486 1485 1483 1481 1479 1478 1476 1475 1475 1474 1473 1472 1471 1470 1470 1468 1468 1468 1466 1466 1466 1465 1465 1465 1465 1465 1466 1466 1465 1465
1493 1494 1495 1493 1492 1491 1491 1491 1490 1488 1487 1486 1485 1483 1483 1480 1478 1476 1474 1472 1471 1470 1470 1469 1467 1465 1464 1463 1462 1460 1459 1458 1456 1456 1455 1456 1456 1455 1456 1457 1457 1457 1458 1458
1496 1495 1493 1493 1492 1490 1490 1488 1488 1485 1483 1483 1480 1479 1477 1474 1473 1472 1469 1469 1467 1465 1464 1462 1460 1458 1457 1455 1454 1453 1451 1449 1448 1447 1445 1443 1446 1446 1446 1448 1448 1449 1449 1450
1496 1494 1494 1494 1493 1492 1491 1489 1487 1485 1483 1480 1478 1477 1476 1474 1471 1468 1465 1463 1460 1458 1457 1454 1453 1450 1447 1446 1445 1443 1441 1439 1437 1436 1435 1435 1435 1435 1436 1437 1438 1439 1441 1442
1496 1495 1495 1493 1493 1492 1491 1489 1487 1485 1482 1479 1477 1476 1474 1470 1465 1462 1459 1456 1453 1452 1449 1447 1445 1444 1442 1439 1437 1435 1433 1431 1429 1426 1426 1425 1424 1425 1427 1428 1427 1427 1429 1431